Weather History for Torrington, WY

Change the Weather History Date:

Wednesday, November 14, 2012

  Actual Average Record
Temperature  
Mean Temperature 39 °F 36 °F  
Max Temperature 57 °F 50 °F 74 °F (1999)
Min Temperature 20 °F 23 °F -3 °F (2000)
Degree Days  
Heating Degree Days 26 28  
Month to date heating degree days 347 357  
Since 1 July heating degree days 973 1067  
Cooling Degree Days 0 0  
Month to date cooling degree days 0 0  
Year to date cooling degree days 1021 678  
Moisture  
Dew Point 25 °F    
Average Humidity 57    
Maximum Humidity 88    
Minimum Humidity 26    
Precipitation  
Precipitation 0.00 in 0.01 in 0.08 in (2005)
Month to date precipitation 0.05 0.26  
Year to date precipitation 6.96 13.66  
Sea Level Pressure  
Sea Level Pressure 30.18 in    
Wind  
Wind Speed 8 mph (WNW)    
Max Wind Speed 24 mph    
Max Gust Speed 32 mph    
Visibility 10 miles    
Events      
T = Trace of Precipitation, MM = Missing Value Source: NWS Daily Summary

Daily Weather History Graph

Daily Weather History Graph

Search for Another Location

Airport:

Trip Planner

Search our weather history database for the weather conditions in past years. The results will help you decide how hot, cold, wet, or windy it might be!

Date:

Astronomy

Nov. 14, 2012 Rise Set
Actual Time 6:46 AM MST 4:35 PM MST
Civil Twilight 6:16 AM MST 5:05 PM MST
Nautical Twilight 5:42 AM MST 5:39 PM MST
Astronomical Twilight 5:09 AM MST 6:12 PM MST
Moon 7:39 AM MST (11/14) 5:25 PM MST (11/14)
Length of Visible Light 10h 49m
Length of Day
9h 49m
New Moon, 1% of the Moon is Illuminated
Nov 14
New Moon
Nov 20
First Quarter
Nov 28
Full
Dec 6
Last Quarter
Dec 13
New

Hourly Weather History & Observations

Time (MST) Temp. Windchill Dew Point Humidity Pressure Visibility Wind Dir Wind Speed Gust Speed Precip Events Conditions
12:53 AM 26.1 °F 18.4 °F 21.9 °F 84% 30.24 in 10.0 mi SE 6.9 mph - N/A   Clear
1:53 AM 28.0 °F - 19.9 °F 72% 30.23 in 10.0 mi Calm Calm - N/A   Clear
2:53 AM 26.1 °F - 19.0 °F 75% 30.23 in 10.0 mi Calm Calm - N/A   Clear
3:53 AM 21.9 °F 17.2 °F 18.0 °F 85% 30.23 in 10.0 mi ENE 3.5 mph - N/A   Clear
4:53 AM 23.0 °F 14.7 °F 19.0 °F 85% 30.25 in 10.0 mi NE 6.9 mph - N/A   Clear
5:53 AM 24.1 °F 19.7 °F 19.0 °F 81% 30.24 in 10.0 mi SE 3.5 mph - N/A   Clear
6:53 AM 27.0 °F - 21.0 °F 78% 30.23 in 10.0 mi Calm Calm - N/A   Clear
7:53 AM 28.9 °F 25.2 °F 23.0 °F 78% 30.25 in 10.0 mi South 3.5 mph - N/A   Clear
8:53 AM 34.0 °F - 28.9 °F 82% 30.23 in 10.0 mi Calm Calm - N/A   Partly Cloudy
9:53 AM 42.1 °F - 30.0 °F 62% 30.20 in 10.0 mi Calm Calm - N/A   Clear
10:53 AM 45.0 °F 42.6 °F 30.9 °F 58% 30.18 in 10.0 mi ESE 4.6 mph - N/A   Clear
11:53 AM 53.1 °F - 24.1 °F 32% 30.12 in 10.0 mi WNW 9.2 mph - N/A   Clear
12:53 PM 55.9 °F - 21.9 °F 27% 30.09 in 10.0 mi West 16.1 mph 23.0 mph N/A   Clear
1:53 PM 54.0 °F - 21.9 °F 29% 30.09 in 10.0 mi West 16.1 mph 24.2 mph N/A   Mostly Cloudy
2:53 PM 51.1 °F - 25.0 °F 36% 30.11 in 10.0 mi West 16.1 mph 26.5 mph N/A   Overcast
3:53 PM 50.0 °F - 27.0 °F 41% 30.12 in 10.0 mi WNW 21.9 mph 27.6 mph N/A   Overcast
4:53 PM 48.9 °F - 28.0 °F 44% 30.12 in 10.0 mi WNW 18.4 mph - N/A   Clear
5:53 PM 46.9 °F - 27.0 °F 46% 30.14 in 10.0 mi WNW 12.7 mph - N/A   Overcast
6:53 PM 46.0 °F 41.4 °F 27.0 °F 47% 30.15 in 10.0 mi WNW 9.2 mph - N/A   Overcast
7:53 PM 45.0 °F 41.2 °F 27.0 °F 49% 30.17 in 10.0 mi WNW 6.9 mph - N/A   Overcast
8:53 PM 45.0 °F 40.1 °F 28.0 °F 52% 30.17 in 10.0 mi WNW 9.2 mph - N/A   Overcast
9:53 PM 45.0 °F 40.1 °F 30.9 °F 58% 30.17 in 10.0 mi WNW 9.2 mph - N/A   Overcast
10:53 PM 45.0 °F 41.8 °F 30.9 °F 58% 30.17 in 10.0 mi WNW 5.8 mph - N/A   Overcast
11:53 PM 42.1 °F 37.1 °F 28.0 °F 58% 30.18 in 10.0 mi NNW 8.1 mph - N/A   Overcast